This is the latest recevied weather packets stored in our database for station/object SP9KB-13. If no packets are shown the sender has not sent any weather packets the latest 10 day(s).
| Time | Temp. | Humidity | Pressure | Rain* | Wind** | Luminosity | Snow |
|---|---|---|---|---|---|---|---|
| 1777748922 | 6.11° C | 81% | 1003.4 hPa | 0 mm | - | - | - |
| 1777748621 | 6.11° C | 80% | 1003.5 hPa | 0 mm | - | - | - |
| 1777748321 | 6.67° C | 80% | 1003.5 hPa | 0 mm | - | - | - |
| 1777748020 | 6.67° C | 77% | 1003.4 hPa | 0 mm | - | - | - |
| 1777747720 | 7.22° C | 77% | 1003.3 hPa | 0 mm | - | - | - |
| 1777747419 | 7.22° C | 76% | 1003.4 hPa | 0 mm | - | - | - |
| 1777747118 | 7.78° C | 75% | 1003.3 hPa | 0 mm | - | - | - |
| 1777746818 | 7.78° C | 74% | 1003.3 hPa | 0 mm | - | - | - |
| 1777746517 | 7.78° C | 74% | 1003.1 hPa | 0 mm | - | - | - |
| 1777746216 | 7.78° C | 74% | 1003.2 hPa | 0 mm | - | - | - |
| 1777745916 | 7.78° C | 74% | 1003.2 hPa | 0 mm | - | - | - |
| 1777745615 | 8.89° C | 71% | 1003.1 hPa | 0 mm | - | - | - |
| 1777745315 | 8.89° C | 72% | 1003 hPa | 0 mm | - | - | - |
| 1777745014 | 8.89° C | 71% | 1003.1 hPa | 0 mm | - | - | - |
| 1777744713 | 9.44° C | 69% | 1003 hPa | 0 mm | - | - | - |
| 1777744413 | 9.44° C | 69% | 1002.8 hPa | 0 mm | - | - | - |
| 1777744112 | 10° C | 69% | 1002.9 hPa | 0 mm | - | - | - |
| 1777743811 | 10.56° C | 67% | 1002.9 hPa | 0 mm | - | - | - |
| 1777743510 | 10.56° C | 65% | 1002.8 hPa | 0 mm | - | - | - |
| 1777743210 | 11.11° C | 64% | 1002.8 hPa | 0 mm | - | - | - |
| 1777742909 | 10.56° C | 64% | 1002.8 hPa | 0 mm | - | - | - |
| 1777742609 | 11.11° C | 62% | 1002.9 hPa | 0 mm | - | - | - |
| 1777742308 | 11.67° C | 60% | 1002.8 hPa | 0 mm | - | - | - |
| 1777742007 | 12.22° C | 59% | 1002.7 hPa | 0 mm | - | - | - |
| 1777741707 | 12.22° C | 58% | 1002.9 hPa | 0 mm | - | - | - |
* Rain latest hour (hover to see other rain measurements)
** Current wind speed in m/s (hover to see current wind gust speed)